Regional Weather Roundup
Issued by NWS State College, PA

Home | Current Version | Previous Version | Text Only | Print | Product List | Glossary On
Versions: 1 2 3 4 5 6 7 8 9 10 11 12 13 14 15 16 17 18 19 20 21 22 23 24 25 26 27 28 29 30 31 32 33 34 35 36 37 38 39 40 41 42 43 44 45 46 47 48 49 50
000
ASUS41 KCTP 270310
RWRCTP

REGIONAL WEATHER ROUNDUP
NATIONAL WEATHER SERVICE STATE COLLEGE PA
1100 PM EDT THU APR 26 2018

Note: "fair" indicates few or no clouds below 12,000 feet with no
significant weather and/or obstructions to visibility.

* = STATION THAT DOES NOT REPORT PRECIPITATION /E.G. RAIN...SNOW...ETC/
    THUNDER OR FOG.

PAZ002>004-007>009-013>016-020>023-029>032-270400-
WESTERN PENNSYLVANIA

CITY           SKY/WX    TMP DP  RH WIND       PRES   REMARKS
ERIE           FAIR      42  34  73 S5        29.88F
MEADVILLE      FAIR      42  35  76 NE5       29.88F
FRANKLIN*      FAIR      48  35  60 N6        29.88F
NEW CASTLE     FAIR      51  38  60 CALM      29.88S
BEAVER COUNTY  NOT AVBL
BUTLER*        FAIR      50  38  63 CALM      29.87F
PITTSBURGH INT CLOUDY    56  35  45 N3        29.86F
PITTSBURGH     FAIR      55  34  45 S3        29.86F
INDIANA*       CLEAR     46  39  76 CALM      29.90F
LATROBE        FAIR      48  39  71 CALM      29.88S
WASHINGTON CO* FAIR      48  39  71 CALM      29.89F
$$

PAZ004>006-010>012-017>019-024>028-033>037-041-042-045-046-049>053-270400-
CENTRAL PENNSYLVANIA

CITY           SKY/WX    TMP DP  RH WIND       PRES   REMARKS
BRADFORD       FAIR      41  32  70 CALM      29.88F
DUBOIS         FAIR      50  33  52 CALM      29.87F
CLEARFIELD     FAIR      50  35  56 SW3       29.88F
JOHNSTOWN      FAIR      50  33  52 CALM      29.87F
ALTOONA        FAIR      50  36  58 CALM      29.87F
STATE COLLEGE  FAIR      50  34  54 CALM      29.88S
WILLIAMSPORT   FAIR      51  41  68 N5        29.85R
SELINSGROVE    FAIR      46  41  82 CALM      29.87S
FT INDIANTOWN  FAIR      49  43  80 CALM      29.87S
CAPITAL CITY   FAIR      54  43  66 W3        29.86F
HARRISBURG     MOCLDY    53  45  74 CALM      29.86F
YORK           FAIR      49  45  86 CALM      29.86F
$$

PAZ038>040-043-044-047-048-054-055-060>062-067>071-270400-
EASTERN PENNSYLVANIA

CITY           SKY/WX    TMP DP  RH WIND       PRES   REMARKS
SCRANTON       FAIR      51  40  65 E6        29.86F
MOUNT POCONO   FAIR      42  40  92 NW5       29.87F
ALLENTOWN      FAIR      57  40  52 W3        29.87S
QUAKERTOWN*    CLEAR     48  45  87 CALM      29.88S
READING        FAIR      50  44  80 CALM      29.86F
LANCASTER      FAIR      53  43  68 CALM      29.87F
COATESVILLE    FAIR      57  41  54 CALM      29.90S
POTTSTOWN      FAIR      49  42  77 CALM      29.89S
BLUE BELL      FAIR      48  45  87 CALM      29.90S
DOYLESTOWN     FAIR      53  43  68 CALM      29.87S
WILLOW GROVE   NOT AVBL
NORTH PHILA    FAIR      59  44  57 SW3       29.89S
PHILADELPHIA   MOCLDY    62  40  44 CALM      29.89S
$$




USA.gov is the U.S. government's official web portal to all federal, state and local government web resources and services.